Change the Weather History Date:

Thursday, September 4, 2014

  Actual Average Record
Temperature  
Mean Temperature 83 °F 73 °F  
Max Temperature 94 °F 85 °F 102 °F (1945)
Min Temperature 72 °F 61 °F 44 °F (1902)
Degree Days  
Heating Degree Days 0 1  
Month to date heating degree days 0 2  
Since 1 July heating degree days 2 5  
Cooling Degree Days 18 8  
Month to date cooling degree days 45 35  
Year to date cooling degree days 1254 1201  
Growing Degree Days 33 (Base 50)    
Moisture  
Dew Point 67 °F    
Average Humidity 65    
Maximum Humidity 90    
Minimum Humidity 39    
Precipitation  
Precipitation 0.00 in 0.09 in 4.11 in (1958)
Month to date precipitation T 0.38  
Year to date precipitation 20.66 21.48  
Snow  
Snow 0.00 in 0.00 in 0.00 in ()
Month to date snowfall 0.0 0.0  
Year to date snowfall 16.9 13.7  
Since 1 July snowfall 0.0 0.0  
Snow Depth 0.00 in    
Sea Level Pressure  
Sea Level Pressure 29.75 in    
Wind  
Wind Speed 17 mph (SSW)    
Max Wind Speed 28 mph    
Max Gust Speed 37 mph    
Visibility 10 miles    
Events Thunderstorm    
T = Trace of Precipitation, MM = Missing Value Source: NWS Daily Summary

Daily Weather History Graph

Daily Weather History Graph

Search for Another Location

Airport or City:

Trip Planner

Search our weather history database for the weather conditions in past years. The results will help you decide how hot, cold, wet, or windy it might be!

Date:

Astronomy

Sep. 04, 2014 Rise Set
Actual Time 7:01 AM CDT 7:56 PM CDT
Civil Twilight 6:34 AM CDT 8:24 PM CDT
Nautical Twilight 6:01 AM CDT 8:56 PM CDT
Astronomical Twilight 5:27 AM CDT 9:30 PM CDT
Moon 4:35 PM CDT (9/4) 1:54 AM CDT (9/4)
Length of Visible Light 13h 49m
Length of Day
12h 55m
Waxing Gibbous, 74% of the Moon is Illuminated
Sep 4
Waxing Gibbous
Sep 8
Full
Sep 15
Last Quarter
Sep 24
New
Oct 1
First Quarter

Hourly Weather History & Observations

Time (CDT) Temp. Heat Index Dew Point Humidity Pressure Visibility Wind Dir Wind Speed Gust Speed Precip Events Conditions
12:55 AM 81.0 °F 83.3 °F 66.9 °F 62% 29.70 in 10.0 mi South 17.3 mph 26.5 mph N/A   Clear
1:55 AM 80.1 °F 82.3 °F 66.9 °F 64% 29.71 in 10.0 mi South 12.7 mph 21.9 mph N/A   Clear
2:23 AM 80.1 °F 82.3 °F 66.9 °F 64% 29.77 in 10.0 mi South 12.7 mph - N/A Thunderstorm Clear
2:38 AM 79.0 °F - 66.9 °F 66% 29.77 in 10.0 mi South 13.8 mph - N/A   Clear
2:55 AM 79.0 °F - 66.9 °F 66% 29.71 in 10.0 mi South 15.0 mph 21.9 mph N/A   Clear
3:55 AM 78.1 °F - 66.9 °F 68% 29.71 in 10.0 mi South 16.1 mph - N/A   Clear
4:55 AM 77.0 °F - 66.9 °F 71% 29.70 in 10.0 mi South 20.7 mph 26.5 mph N/A   Clear
5:55 AM 75.9 °F - 66.9 °F 74% 29.70 in 10.0 mi South 19.6 mph 27.6 mph N/A   Clear
6:55 AM 75.9 °F - 66.0 °F 71% 29.71 in 10.0 mi South 18.4 mph 29.9 mph N/A   Clear
7:55 AM 75.9 °F - 66.9 °F 74% 29.71 in 10.0 mi South 21.9 mph 28.8 mph N/A   Clear
8:55 AM 78.1 °F - 66.9 °F 68% 29.72 in 10.0 mi South 23.0 mph 35.7 mph N/A   Clear
9:55 AM 82.0 °F 84.9 °F 68.0 °F 62% 29.72 in 10.0 mi South 24.2 mph 32.2 mph N/A   Clear
10:55 AM 84.9 °F 88.8 °F 69.1 °F 59% 29.74 in 10.0 mi South 20.7 mph 34.5 mph N/A   Clear
11:55 AM 88.0 °F 92.1 °F 69.1 °F 53% 29.75 in 10.0 mi South 23.0 mph 33.4 mph N/A   Clear
12:55 PM 90.0 °F 94.5 °F 69.1 °F 50% 29.76 in 10.0 mi SSW 23.0 mph 31.1 mph N/A   Clear
1:55 PM 91.0 °F 95.6 °F 69.1 °F 48% 29.75 in 10.0 mi SSW 23.0 mph 28.8 mph N/A   Clear
2:55 PM 93.0 °F 96.4 °F 66.9 °F 42% 29.74 in 10.0 mi SSW 16.1 mph 31.1 mph N/A   Clear
3:55 PM 93.9 °F 97.5 °F 66.9 °F 41% 29.73 in 10.0 mi SSW 18.4 mph 27.6 mph N/A   Clear
4:55 PM 93.0 °F 95.0 °F 64.9 °F 39% 29.74 in 10.0 mi SSW 19.6 mph 26.5 mph N/A   Clear
5:55 PM 91.9 °F 95.4 °F 66.9 °F 44% 29.74 in 10.0 mi SSW 15.0 mph - N/A   Clear
6:55 PM 89.1 °F 92.1 °F 66.9 °F 48% 29.75 in 10.0 mi SSW 15.0 mph - N/A   Clear
7:55 PM 84.9 °F 87.6 °F 66.9 °F 55% 29.77 in 10.0 mi SSW 10.4 mph - N/A   Clear
9:55 PM 75.9 °F - 71.1 °F 85% 29.87 in 10.0 mi North 10.4 mph - N/A   Partly Cloudy
10:55 PM 73.0 °F - 70.0 °F 90% 29.90 in 10.0 mi North 3.5 mph - N/A   Clear
11:55 PM 72.0 °F - 68.0 °F 87% 29.91 in 10.0 mi North 12.7 mph - N/A   Scattered Clouds